User: anonymous   Login
Location: G�ndlingen
(48.0142°N, 7.6396°E)
Time: 01:39:43
(UTC+00:00)
Language:

Cosmos 2084 - Orbit

View from above orbital plane
View from above orbital plane
View from above satellite
View from above satellite

Ground track
Ground track

The orbit data is extracted from the following two-line orbital elements,

1 20663U 90055A   20272.45937358 +.00000093 +00000-0 +26934-4 0  9993
2 20663 062.7950 184.2617 0032855 307.2474 052.5624 14.92116779638724
Epoch (UTC): 28 September 2020 11:01:29
Eccentricity: 0.0032855
inclination: 62.7950°
perigee height: 568 km
apogee height: 614 km
right ascension of ascending node: 184.2617°
argument of perigee: 307.2474°
revolutions per day: 14.92116779
mean anomaly at epoch: 52.5624°
orbit number at epoch: 63872

The dashed part of the orbit path shows where the satellite is in the earth's shadow,  

DLR